Regional Weather Roundup
Issued by NWS

Home | Current Version | Previous Version | Text Only | Print | Product List | Glossary On
Versions: 1 2 3 4 5 6 7 8 9 10 11 12 13 14 15 16 17 18 19 20 21 22 23 24 25 26 27 28 29 30 31 32 33 34 35 36 37 38 39 40 41 42 43 44 45 46 47 48 49 50
000
ASUS46 KPQR 241710
RWROR

OREGON REGIONAL WEATHER ROUNDUP
NATIONAL WEATHER SERVICE PORTLAND OR
900 AM PST TUE JAN 24 2017

NOTE: "FAIR" INDICATES FEW OR NO CLOUDS BELOW 12,000 FEET WITH
NO SIGNIFICANT WEATHER AND/OR OBSTRUCTIONS TO VISIBILITY.

ORZ001>013-241800-
NORTHWEST OREGON


CITY           SKY/WX    TMP DP  RH WIND       PRES   REMARKS
ASTORIA        CLEAR     33  28  81 CALM      30.12R
NEWPORT        SUNNY     32  32 100 E5        30.16R WCI  27
PORTLAND       CLOUDY    31  30  96 CALM      30.15R FOG
VANCOUVER WA   CLOUDY    33  31  92 CALM      30.14R
SCAPPOOSE      FOG       32  32 100 CALM      30.14R VSB 1/4
HILLSBORO      FOG       29  27  92 CALM      30.13R VSB<1/4
AURORA         SUNNY     30  29  96 CALM      30.14R
MCMINNVILLE    SUNNY     31  30  96 CALM      30.14R
SALEM          SUNNY     32  29  88 SE6       30.13R WCI  26
CORVALLIS        N/A     32  30  93 CALM      30.13S
EUGENE         MOSUNNY   30  30 100 S5        30.14R WCI  25
$$

ORZ021-028-241800-
SOUTHWEST OREGON


CITY           SKY/WX    TMP DP  RH WIND       PRES   REMARKS
NORTH BEND     SUNNY     36  36 100 SE7       30.15S WCI  30
BROOKINGS      SUNNY     38  35  89 CALM      30.10R
ROSEBURG       FOG       30  30 100 S5        30.16R VSB 1/4 WCI  25
SEXTON SUMMIT  SUNNY     29  27  92 CALM      30.01R
MEDFORD        FOG       26  25  96 CALM      30.13R VSB<1/4
$$

ORZ014>016-041-241800-
COLUMBIA GORGE


CITY           SKY/WX    TMP DP  RH WIND       PRES   REMARKS
TROUTDALE      PTSUNNY  N/A N/A N/A MISG        N/A
HOOD RIVER     CLOUDY    34  32  93 CALM      30.10R
THE DALLES     CLOUDY    34  31  88 CALM      30.12R
$$

ORZ029>031-041-044-049-050-061>064-502-503-505>511-241800-
EASTERN OREGON


CITY           SKY/WX    TMP DP  RH WIND       PRES   REMARKS
REDMOND        MOSUNNY   22  17  81 S6        30.02R WCI  14
BEND           SUNNY     23  18  80 S8        30.00R WCI  14
PRINEVILLE     CLOUDY    25  23  93 NE6       30.02R WCI  18
KLAMATH FALLS  SUNNY     13   9  84 NW6       30.02R WCI   4
LAKEVIEW       CLOUDY     9   3  78 CALM      29.98R VSB 1/4
HERMISTON      CLOUDY    32  31  96 W5        30.09R WCI  27
PENDLETON      FOG       29  29 100 NW6       30.04R VSB 1/8 WCI  23
JOHN DAY       CLOUDY    28  26  91 W5        29.97R WCI  23
MEACHAM        CLOUDY    27  23  85 CALM      29.93R
LA GRANDE      CLOUDY    25  19  80 N9        29.96R WCI  15
BAKER CITY     CLOUDY    28  21  75 NW17      29.92R WCI  16
BURNS          FOG       -1  -3  91 NE6       29.92R VSB 1/2 WCI -13
ROME             N/A     26  19  74 SW6       29.88R WCI  19
ONTARIO        SUNNY     30  21  69 NW20      29.92R WCI  17
$$



USA.gov is the U.S. government's official web portal to all federal, state and local government web resources and services.